sat.trackr.live / text

‹ back to catalog

ONEWEB-0166

NORAD 48065 · 2021-025Z

PAYLOAD ACTIVE UNKNOWN

§ Identity

Operator
Country
UK
Launch date
2021-03-25
Launch site
VOSTO
Launch vehicle
Mass (kg)
RCS (m²)

Purposes: comms

External: N2YO · Heavens-Above · Gunter

§ Orbital elements

Epoch: 2026-05-24T23:44:04.696800Z

Period
109.63 min
Inclination
87.8951°
Eccentricity
0.0001898
Mean motion
13.13470055 rev/d
Perigee alt
1,208.3 km
Apogee alt
1,211.2 km
Semi-major
7,587.9 km
B*
-8.9829e-4
RAAN
324.8217°
Arg perigee
97.2617°
Mean anomaly
262.8728°
Rev number
25,060

§ Raw data

ONEWEB-01661 48065U 21025Z   26144.98894325 -.00000315  00000+0 -89829-3 0  99972 48065  87.8951 324.8217 0001898  97.2617 262.8728 13.13470055250605

JSON: /api/v1/satellites/48065 · /tle

For live sub-satellite position, see the globe view (requires WebGL).

§ Visibility from observer

Set your observer location to see the next 7 days of passes ≥ 10°. The values pass through the URL so the page stays shareable.

No JS? Fill the form by hand. The geolocation button needs JavaScript.